Hibbing, MN

6:01 AM CDT on October 20, 2017 (GMT -0500)
Chisholm-hibbing

Weather History for KHIB - July, 2013

Change the Weather History Date:

Monday, July 22, 2013

  Actual Average Record
Temperature  
Mean Temperature 65 °F -  
Max Temperature 77 °F 77 °F 93 °F (1965)
Min Temperature 53 °F 52 °F 37 °F (1981)
Growing Degree Days 15 (Base 50)    
Moisture  
Dew Point 57 °F    
Average Humidity 73    
Maximum Humidity 94    
Minimum Humidity 56    
Precipitation  
Precipitation 0.01 in - - ()
Sea Level Pressure  
Sea Level Pressure 29.71 in    
Wind  
Wind Speed 7 mph (West)    
Max Wind Speed 23 mph    
Max Gust Speed 30 mph    
Visibility 10 miles    
Events Rain    
Averages and records for this station are not official NWS values.
T = Trace of Precipitation, MM = Missing Value Source: NWS Daily Summary

Daily Weather History Graph

Daily Weather History Graph

Search for Another Location

Airport or City:

Trip Planner

Search our weather history database for the weather conditions in past years. The results will help you decide how hot, cold, wet, or windy it might be!

Date:

Astronomy

Jul. 22, 2013 Rise Set
Actual Time 5:37 AM CDT 8:57 PM CDT
Civil Twilight 5:00 AM CDT 9:34 PM CDT
Nautical Twilight 4:11 AM CDT 10:23 PM CDT
Astronomical Twilight 3:08 AM CDT 11:25 PM CDT
Moon 8:36 PM CDT (7/22) 5:39 AM CDT (7/22)
Length of Visible Light 16h 34m
Length of Day
15h 19m
Full, 100% of the Moon is Illuminated
Jul 22
Full
Jul 22
Full
Jul 29
Last Quarter
Aug 6
New
Aug 14
First Quarter

Hourly Weather History & Observations

Time (CDT) Temp. Dew Point Humidity Pressure Visibility Wind Dir Wind Speed Gust Speed Precip Events Conditions
12:23 AM 53.6 °F 44.6 °F 72% 29.81 in 10.0 mi SE 4.6 mph - N/A   Mostly Cloudy
12:41 AM 53.6 °F 44.6 °F 72% 29.82 in 10.0 mi Calm Calm - N/A   Scattered Clouds
12:53 AM 54.0 °F 45.0 °F 72% 29.82 in 10.0 mi Calm Calm - N/A   Scattered Clouds
1:36 AM 55.4 °F 46.4 °F 72% 29.79 in 10.0 mi SE 3.5 mph - N/A   Overcast
1:53 AM 55.0 °F 46.0 °F 72% 29.78 in 10.0 mi SE 4.6 mph - N/A   Overcast
2:35 AM 55.4 °F 48.2 °F 77% 29.73 in 10.0 mi South 4.6 mph - N/A   Mostly Cloudy
2:53 AM 57.0 °F 50.0 °F 77% 29.70 in 10.0 mi SSE 4.6 mph - N/A   Overcast
3:34 AM 60.8 °F 53.6 °F 77% 29.71 in 10.0 mi South 6.9 mph - N/A   Overcast
3:53 AM 60.1 °F 55.9 °F 86% 29.69 in 10.0 mi Variable 6.9 mph - N/A   Overcast
4:53 AM 62.1 °F 59.0 °F 90% 29.67 in 10.0 mi Variable 3.5 mph - 0.01 in Rain Light Rain
5:24 AM 62.6 °F 60.8 °F 94% 29.68 in 8.0 mi SSW 6.9 mph - 0.00 in   Overcast
5:53 AM 64.0 °F 61.0 °F 90% 29.66 in 8.0 mi SSW 8.1 mph - 0.00 in   Overcast
6:42 AM 66.2 °F 62.6 °F 88% 29.64 in 10.0 mi Variable 4.6 mph - 0.00 in   Mostly Cloudy
6:51 AM 66.2 °F 62.6 °F 88% 29.64 in 10.0 mi Variable 5.8 mph - 0.00 in   Mostly Cloudy
6:53 AM 66.0 °F 63.0 °F 90% 29.63 in 10.0 mi SSW 5.8 mph - 0.00 in   Overcast
7:32 AM 66.2 °F 64.4 °F 94% 29.65 in 10.0 mi Variable 6.9 mph - N/A   Overcast
7:53 AM 68.0 °F 64.0 °F 87% 29.63 in 10.0 mi SSW 6.9 mph - N/A   Overcast
8:15 AM 69.8 °F 64.4 °F 83% 29.64 in 10.0 mi Variable 4.6 mph - N/A   Overcast
8:53 AM 72.0 °F 66.9 °F 84% 29.62 in 10.0 mi SW 8.1 mph - N/A   Overcast
9:35 AM 75.2 °F 66.2 °F 73% 29.63 in 10.0 mi West 10.4 mph 20.7 mph N/A   Mostly Cloudy
9:53 AM 75.0 °F 64.9 °F 71% 29.62 in 10.0 mi West 8.1 mph 16.1 mph N/A   Mostly Cloudy
10:06 AM 75.2 °F 64.4 °F 69% 29.63 in 10.0 mi West 6.9 mph 19.6 mph N/A   Mostly Cloudy
10:24 AM 75.2 °F 64.4 °F 69% 29.63 in 10.0 mi WNW 8.1 mph 19.6 mph N/A   Mostly Cloudy
10:35 AM 75.2 °F 62.6 °F 65% 29.63 in 10.0 mi West 13.8 mph 23.0 mph N/A   Mostly Cloudy
10:53 AM 77.0 °F 60.1 °F 56% 29.63 in 10.0 mi WNW 15.0 mph 24.2 mph N/A   Partly Cloudy
11:53 AM 75.9 °F 59.0 °F 56% 29.65 in 10.0 mi WNW 15.0 mph 26.5 mph N/A   Partly Cloudy
12:53 PM 73.9 °F 57.9 °F 57% 29.68 in 10.0 mi NW 23.0 mph 29.9 mph N/A   Mostly Cloudy
1:53 PM 71.1 °F 57.0 °F 61% 29.71 in 10.0 mi WNW 16.1 mph 26.5 mph N/A   Mostly Cloudy
2:53 PM 70.0 °F 55.0 °F 59% 29.73 in 10.0 mi WNW 18.4 mph 26.5 mph N/A   Overcast
3:53 PM 70.0 °F 55.0 °F 59% 29.74 in 10.0 mi WNW 16.1 mph 21.9 mph N/A   Overcast
4:53 PM 71.1 °F 55.0 °F 57% 29.74 in 10.0 mi NW 17.3 mph 27.6 mph N/A   Overcast
5:53 PM 71.1 °F 55.0 °F 57% 29.74 in 10.0 mi NNW 16.1 mph 24.2 mph N/A   Overcast
6:53 PM 69.1 °F 53.1 °F 57% 29.76 in 10.0 mi NNW 15.0 mph 25.3 mph N/A   Overcast
7:53 PM 66.9 °F 53.1 °F 61% 29.78 in 10.0 mi NNW 12.7 mph - N/A   Mostly Cloudy
8:53 PM 63.0 °F 53.1 °F 70% 29.79 in 10.0 mi NW 8.1 mph - N/A   Clear
9:53 PM 62.1 °F 52.0 °F 70% 29.81 in 10.0 mi WNW 6.9 mph - N/A   Clear
10:53 PM 60.1 °F 52.0 °F 75% 29.83 in 10.0 mi WNW 8.1 mph - N/A   Clear
11:53 PM 59.0 °F 52.0 °F 78% 29.84 in 10.0 mi NW 9.2 mph - N/A   Partly Cloudy